This is the latest recevied weather packets stored in our database for station/object IW0HP-3. If no packets are shown the sender has not sent any weather packets the latest 10 day(s).
| Time | Temp. | Humidity | Pressure | Rain* | Wind** | Luminosity | Snow |
|---|---|---|---|---|---|---|---|
| 1788399627 | 25.56° C | 50% | 1016.1 hPa | - | - | - | - |
| 1788398422 | 25.56° C | 49% | 1016.2 hPa | - | - | - | - |
| 1788397218 | 25.56° C | 51% | 1016.1 hPa | - | - | - | - |
| 1788396013 | 26.11° C | 51% | 1016.3 hPa | - | - | - | - |
| 1788394809 | 26.11° C | 50% | 1016.2 hPa | - | - | - | - |
| 1788393604 | 26.11° C | 51% | 1016.3 hPa | - | - | - | - |
| 1788392400 | 26.11° C | 52% | 1016.3 hPa | - | - | - | - |
| 1788391195 | 26.11° C | 53% | 1016.1 hPa | - | - | - | - |
| 1788389991 | 26.67° C | 52% | 1016.1 hPa | - | - | - | - |
| 1788388786 | 26.67° C | 52% | 1016.1 hPa | - | - | - | - |
| 1788387581 | 27.22° C | 51% | 1016.1 hPa | - | - | - | - |
| 1788386376 | 27.22° C | 51% | 1016.1 hPa | - | - | - | - |
| 1788385171 | 27.78° C | 52% | 1016 hPa | - | - | - | - |
| 1788383967 | 27.78° C | 51% | 1016 hPa | - | - | - | - |
| 1788382762 | 27.78° C | 50% | 1015.9 hPa | - | - | - | - |
| 1788381557 | 28.33° C | 50% | 1015.9 hPa | - | - | - | - |
| 1788380351 | 28.33° C | 49% | 1015.9 hPa | - | - | - | - |
| 1788379146 | 28.33° C | 48% | 1016.1 hPa | - | - | - | - |
| 1788377941 | 28.33° C | 48% | 1015.9 hPa | - | - | - | - |
| 1788376737 | 28.89° C | 45% | 1015.8 hPa | - | - | - | - |
| 1788375532 | 28.89° C | 43% | 1015.6 hPa | - | - | - | - |
| 1788374328 | 28.89° C | 42% | 1015.7 hPa | - | - | - | - |
| 1788373123 | 29.44° C | 40% | 1015.5 hPa | - | - | - | - |
| 1788371919 | 29.44° C | 39% | 1015.2 hPa | - | - | - | - |
| 1788370715 | 30° C | 38% | 1015.4 hPa | - | - | - | - |
* Rain since midnight (hover to see other rain measurements)
** Current wind speed in m/s (hover to see current wind gust speed)